www.pogodaiklimat.ru

Погода и климат >> Архив погоды >> Франция >> Анси


ПОГОДА в Анси

  • Прогноз погоды в Анси
  • Монитор погоды в Анси

АРХИВ ПОГОДЫ в Анси

Время (UTC), дата Ветер
(напр.,м/с)
 
Видим.   Явления Облачность Т
(С)
Тd
(С)
f
(%)
Тe
(С)
Тes
(С)
Комфортность P
(гПа)
Po
(гПа)
Тmin
(С)
Tmax
(С)
R
(мм)
R24
(мм)
S
(см)
16 16.08 СЗ 1-2
{2}
45 км н/о +25.2 +9.5 37 +26 +26 жарко 1014.8 963.8
17 16.08 ЮЗ 1-2
{2}
30 км н/о +25.4 +10.8 40 +26 +26 жарко 1014.3 963.4
18 16.08 ЮЗ 1
{4}
55 км н/о +23.4 +12.1 49 +26 +26 жарко 1014.9 963.6 +12.9 +25.9 0
19 16.08 СВ 1-2
{2}
60 км н/о +19.9 +13.1 65 +23 +23 комфорт 1015.8 963.9
20 16.08 С 1-2
{2}
60 км н/о +17.5 +12.0 70 +19 +19 1016.9 964.5
21 16.08 СВ 2
{5}
60 км 9/0
[]
+17.2 +12.9 76 +18 +18 1016.9 964.5 0
22 16.08 СВ 2-3
{3}
60 км н/о +16.1 +12.6 80 +16 +16 1017.0 964.4
23 16.08 СВ 2-2
{3}
60 км н/о +15.4 +12.3 82 +16 +16 1017.2 964.4
00 17.08 СВ 2-2
{3}
55 км н/о +13.8 +11.7 87 +14 +14 1017.3 964.2 0
01 17.08 СВ 2-2
{2}
55 км н/о +13.4 +11.5 88 +13 +13 1016.9 963.8
02 17.08 В 2-2
{2}
60 км н/о +12.7 +10.6 87 +12 +12 1017.5 964.2
03 17.08 СВ 1-2
{2}
60 км н/о +12.4 +10.3 87 +12 +12 1017.2 963.9 0
04 17.08 В 1-2
{2}
60 км 9/9
[]
+13.1 +10.3 83 +14 +14 1017.0 963.8
05 17.08 В 1-2
{2}
60 км 10/10
[]
+12.5 +10.4 87 +12 +12 1017.3 964.0
06 17.08 штиль 0
{3}
60 км 9/0
[]
+13.8 +11.5 86 +13 +14 1017.2 964.1 +12.2 +23.3 0
07 17.08 С 1-1
{2}
55 км 9/9
[]
+17.4 +12.5 73 +19 +19 1016.5 964.1
08 17.08 В 1-2
{2}
60 км н/о +20.8 +11.4 55 +24 +24 комфорт 1015.9 964.1
09 17.08 ЮВ 1-2
{2}
55 км н/о +23.3 +11.0 46 +26 +26 жарко 1015.4 964.1 0
10 17.08 Ю 1-2
{2}
18 км н/о +25.7 +11.5 41 +27 +27 жарко 1014.6 963.7
11 17.08 ЮЗ 1-3
{3}
16 км н/о +26.4 +10.5 37 +27 +27 жарко 1013.9 963.2
12 17.08 ЮЗ 3-4
{4}
45 км н/о +28.5 +10.7 33 +29 +29 жарко 1013.2 962.8 0
13 17.08 ЮЗ 3-4
{4}
17 км н/о +29.4 +10.0 30 +29 +29 жарко 1012.6 962.4
14 17.08 ЮЗ 3-5
{5}
18 км н/о +30.8 +9.1 26 +30 +30 жарко 1012.0 962.0
15 17.08 ЮЗ 2-3
{4}
60 км н/о +30.6 +9.5 27 +30 +30 жарко 1011.6 961.6 0
16 17.08 Ю 2-3
{5}
55 км н/о +31.3 +8.9 25 +30 +30 жарко 1011.0 961.2
17 17.08 ЮЗ 2-2
{4}
60 км 10/10
[]
+30.3 +11.3 31 +31 +31 жарко 1010.8 960.9
18 17.08 ЮЗ 1
{4}
60 км 10/0
[]
+29.8 +13.1 36 +31 +31 жарко 1010.5 960.5 +13.8 +31.6 0
19 17.08 ЮЗ 1-2
{2}
16 км 10/10
[]
+26.2 +13.0 44 +28 +28 жарко 1011.6 961.0
20 17.08 СВ 1-1
{2}
60 км 8/8
[]
+22.4 +14.3 60 +26 +26 жарко 1012.7 961.4
21 17.08 СВ 2
{4}
60 км 10/0
[]
+20.8 +14.0 65 +24 +24 комфорт 1013.1 961.5 0
22 17.08 СЗ 1-1
{2}
60 км 10/10
[]
+21.2 +14.1 64 +24 +24 комфорт 1013.3 961.8
23 17.08 СВ 2 60 км 10/10
[]
+20.1 +14.2 69 +23 +23 комфорт 1013.6 961.9
00 18.08 СВ 1-1
{2}
60 км 10/0
[]
+19.5 +13.7 69 +23 +23 комфорт 1013.6 961.8 0
01 18.08 СВ 1-2
{2}
60 км н/о +18.0 +13.3 74 +19 +19 1013.9 961.8
02 18.08 С 1-1
{2}
60 км н/о +17.0 +13.3 79 +18 +18 1013.6 961.3
03 18.08 СВ 1-1
{2}
60 км н/о +16.2 +12.9 81 +18 +18 1013.4 961.0 0
04 18.08 СВ 1-2
{2}
60 км н/о +15.8 +12.7 82 +16 +16 1013.2 960.7
05 18.08 СВ 1-1
{2}
55 км н/о +14.7 +12.6 87 +15 +15 1013.3 960.6
06 18.08 В 1
{3}
50 км н/о +17.5 +13.2 76 +19 +19 1012.5 960.4 +14.7 +29.7 0
07 18.08 ЮВ 1-1
{1}
45 км н/о +21.2 +14.1 64 +24 +24 комфорт 1011.6 960.2
08 18.08 Ю 2-3
{3}
60 км н/о +24.1 +12.1 47 +26 +26 жарко 1010.8 959.9
09 18.08 ЮЗ 2-3
{3}
45 км н/о +25.3 +12.8 46 +27 +27 жарко 1010.7 960.0 0
10 18.08 ЮЗ 3-4
{4}
20 км н/о +27.4 +13.0 41 +29 +29 жарко 1010.4 960.0
11 18.08 ЮЗ 2-3
{4}
6000 м н/о +28.2 +13.7 41 +30 +30 жарко 1009.9 959.7
12 18.08 ЮЗ 2-4
{4}
19 км н/о +30.5 +15.0 39 +33 +33 душно 1009.2 959.4 0
13 18.08 З 4-7
{7}
30 км н/о +30.5 +15.0 39 +33 +33 душно 1009.8 960.0
14 18.08 З 3-5
{6}
30 км н/о +30.7 +15.5 40 +33 +33 душно 1009.2 959.5
15 18.08 ЮЗ 3-4
{5}
40 км н/о +30.6 +15.8 41 +33 +33 душно 1008.8 959.1 0
16 18.08 ЮЗ 3-5
{6}
40 км н/о +30.5 +15.4 40 +33 +33 душно 1009.4 959.6
17 18.08 ЮЗ 2-3
{4}
45 км н/о +30.1 +15.8 42 +33 +33 душно 1008.9 959.1
18 18.08 З 2
{7}
55 км н/о +27.8 +15.5 47 +31 +31 душно 1009.2 959.0 +17.6 +31.0 0
19 18.08 ЮЗ 1-2
{3}
3700 м дымка н/о +26.3 +15.7 52 +29 +29 жарко 1009.7 959.2
20 18.08 С 1 55 км 9/9
[]
+25.6 +15.6 54 +29 +29 душно 1011.1 960.5
21 18.08 СЗ 2
{11}
50 км 10/10 1500 м
[]
+21.7 +17.5 77 +26 +26 душно 1013.8 962.4 2 0
22 18.08 С 1-1
{4}
19 км слаб. дождь 10/10 1500 м
[]
+20.4 +18.2 87 +25 +25 комфорт 1014.8 963.2 0.8
23 18.08 ЮВ 2 5000 м сильн. дождь 10/1 800 м
[]
+19.6 +17.9 90 +23 +23 комфорт 1015.4 963.6 2
00 19.08 С 1
{5}
21 км 8/8 1500 м
[]
+19.0 +17.8 93 +22 +22 комфорт 1015.4 963.5 3 0
01 19.08 СВ 1 29 км 10/1 1410 м
[]
+19.0 +17.7 92 +22 +22 комфорт 1016.1 964.1
02 19.08 В 1 6000 м дождь 10/5 1230 м
[]
+18.8 +17.8 94 +21 +21 комфорт 1017.0 965.0 1
03 19.08 СВ 1
{6}
22 км 9/9 600 м
[]
+18.5 +17.5 94 +21 +21 комфорт 1016.0 964.0 2 0
04 19.08 СВ 1 30 км 10/10 2000 м
[]
+18.3 +16.8 91 +20 +20 1016.7 964.6
05 19.08 Ю 1 6000 м слаб. дождь 10/1 1320 м
[]
+18.1 +17.3 95 +19 +19 1017.8 965.6 0.8
06 19.08 С 1
{5}
13 км слаб. дождь 10/10 1500 м
[]
+18.0 +16.7 92 +20 +20 1017.0 964.8 +18.0 +27.8 1 0
07 19.08 Ю 1-2
{2}
19 км 10/10
[]
+18.7 +17.0 90 +21 +21 комфорт 1017.5 965.4 0.2
08 19.08 В 1 40 км 10/1 240 м
[]
+19.6 +16.6 83 +23 +27 комфорт 1016.8 964.9
09 19.08 ЮЗ 1
{3}
35 км 10/10 300 м
[]
+19.6 +16.8 84 +23 +27 комфорт 1017.3 965.4 0.2 0
10 19.08 З 1 13 км слаб. дождь 10/6 930 м
[]
+19.6 +16.8 84 +23 +27 комфорт 1017.4 965.5 0.0
11 19.08 ЮЗ 2-3
{3}
45 км н/о +20.9 +16.3 75 +25 +25 комфорт 1017.3 965.6 0.2
12 19.08 ЮЗ 2
{7}
45 км 9/9 600 м
[]
+21.5 +16.7 74 +25 +31 комфорт 1017.3 965.7 0.2 0
13 19.08 Ю 2-3
{3}
50 км 9/9
[]
+21.8 +17.4 76 +26 +28 душно 1017.2 965.7
14 19.08 ЮЗ 2 50 км 10/10
[]
+21.9 +16.6 72 +26 +26 душно 1017.0 965.5
15 19.08 З 2
{7}
55 км 10/10 1500 м
[]
+21.6 +15.9 70 +25 +25 комфорт 1017.4 965.8 0.0 0
16 19.08 З 2 40 км 10/10 1500 м
[]
+20.6 +16.0 75 +25 +25 комфорт 1017.9 966.1
17 19.08 СЗ 1 3900 м дождь 10/1 720 м
[]
+19.0 +16.8 87 +22 +22 комфорт 1018.3 966.2 0.8
18 19.08 З 1
{4}
19 км слаб. дождь 10/10 1000 м
[]
+18.1 +16.6 91 +20 +20 1019.2 966.9 +18.0 +22.2 3 0
19 19.08 З 1 16 км 10/9 1300 м
[]
+18.0 +17.0 94 +20 +20 1019.4 967.1 0.6
20 19.08 СЗ 1-1
{2}
22 км 10/10 330 м
[]
+17.8 +16.7 93 +19 +19 1020.0 967.6
21 19.08 С 1
{3}
16 км 10/10 300 м
[]
+17.2 +16.2 94 +19 +19 1020.2 967.7 0.6 0
22 19.08 СЗ 1-2
{2}
10 км 10/10 1350 м
[]
+16.7 +15.9 95 +18 +18 1020.4 967.8
23 19.08 З 1 12 км слаб. дождь 10/10 500 м
[]
+16.6 +15.5 93 +17 +17 1020.3 967.7 2
00 20.08 З 1
{7}
16 км 10/10 300 м
[]
+16.2 +15.4 95 +17 +17 1020.7 968.0 5 0
01 20.08 ЮЗ 1-2
{3}
35 км 10/10 420 м
[]
+16.0 +14.9 93 +17 +17 1020.8 968.0 2
02 20.08 СЗ 1 19 км 10/1 600 м
[]
+16.0 +15.0 94 +17 +17 1019.9 967.2 0.0
03 20.08 З 1
{3}
19 км 10/10 200 м
[]
+15.9 +14.9 94 +17 +17 1019.5 966.8 2 0
04 20.08 ЮЗ 1 3400 м дождь 10/10 210 м
[]
+16.0 +15.2 95 +17 +17 1019.6 966.9 1
05 20.08 Ю 1 4400 м дождь 10/10 300 м
[]
+16.1 +15.5 96 +17 +17 1019.8 967.1 2
06 20.08 СЗ 1
{5}
3700 м дождь 10/10 600 м
[]
+15.7 +14.9 95 +16 +16 1020.3 967.5 +15.7 +18.2 9 0
07 20.08 ЮЗ 1 6000 м дождь 10/10 400 м
[]
+15.7 +14.7 94 +16 +16 1021.1 968.2 3
08 20.08 З 1 9000 м слаб. дождь 10/10 540 м
[]
+16.0 +14.9 93 +17 +17 1021.3 968.5 2
09 20.08 З 1
{5}
15 км слаб. дождь 10/10 100 м
[]
+16.0 +15.2 95 +17 +17 1021.5 968.7 8 0
10 20.08 З 2 3300 м дождь 10/9 270 м
[]
+15.8 +14.8 94 +16 +16 1021.9 969.0 3
11 20.08 СВ 2 3300 м сильн. дождь 10/9 570 м
[]
+15.9 +13.7 87 +16 +17 1022.5 969.6 5
12 20.08 С 1-2
{3}
4600 м дождь 10/10 1500 м
[]
+15.5 +13.9 90 +16 +16 1022.8 969.8 11 0
13 20.08 С 1 12 км слаб. дождь 10/4 480 м
[]
+16.0 +14.0 88 +17 +21 1023.1 970.2 1
14 20.08 С 2 6000 м слаб. дождь 10/9 450 м
[]
+15.4 +13.2 87 +16 +16 1023.6 970.5 1
15 20.08 СВ 2
{4}
7000 м слаб. дождь 10/10 300 м
[]
+15.2 +12.5 84 +15 +15 1024.9 971.7 4 0
16 20.08 С 3
{6}
10 км слаб. дождь 10/10 1500 м
[]
+14.6 +12.1 85 +14 +14 1025.5 972.2 2
17 20.08 С 4
{7}
55 км 10/1 1000 м
[]
+14.6 +11.6 82 +13 +13 1025.7 972.3 0.4
18 20.08 СВ 1
{5}
29 км слаб. дождь 10/10 1000 м
[]
+14.5 +12.2 86 +15 +15 1025.6 972.2 +14.4 +16.3 3 0
19 20.08 СВ 1-2
{3}
19 км 10/10
[]
+14.2 +11.4 83 +15 +15 1025.4 972.0 0.0
20 20.08 С 2-2
{4}
55 км н/о +13.5 +11.2 86 +13 +13 1026.2 972.6
21 20.08 СЗ 1-2
{2}
55 км н/о +12.6 +11.0 90 +13 +13 1026.4 972.6 0.0 0
22 20.08 С 2-3
{3}
60 км н/о +13.1 +10.6 85 +13 +13 1026.3 972.6
23 20.08 С 1-1
{3}
60 км н/о +12.4 +10.5 88 +13 +13 1026.0 972.2
00 21.08 С 1-1
{1}
60 км н/о +12.0 +10.1 88 +12 +12 1025.8 971.9 0
01 21.08 С 1-1
{2}
60 км н/о +11.7 +10.3 91 +12 +12 1025.7 971.8
02 21.08 С 1-2
{2}
50 км н/о +10.6 +9.8 95 +10 +10 1025.8 971.7
03 21.08 С 1-3
{3}
60 км 10/10 600 м
[]
+11.8 +10.9 94 +12 +12 1025.3 971.4 0
04 21.08 С 1 60 км 10/10 600 м
[]
+12.7 +10.9 89 +13 +13 1024.9 971.2
05 21.08 С 1-1
{2}
60 км 10/10 570 м
[]
+13.3 +11.2 87 +14 +14 1025.0 971.4
06 21.08 С 1
{3}
60 км 10/10 600 м
[]
+13.7 +11.2 85 +14 +14 1024.9 971.4 +10.6 +14.5 0
07 21.08 С 2 60 км 10/10 570 м
[]
+14.1 +11.3 83 +14 +14 1024.8 971.4
08 21.08 С 2-3
{4}
50 км 10/10 600 м
[]
+14.5 +11.5 82 +14 +14 1024.4 971.1
09 21.08 С 2-3
{4}
55 км 10/10 300 м
[]
+14.9 +11.3 79 +15 +15 1024.6 971.3 0
10 21.08 СВ 3 45 км 10/10 700 м
[]
+16.1 +12.6 80 +16 +16 1024.3 971.3
11 21.08 СВ 3 45 км 10/10 660 м
[]
+16.9 +12.4 75 +17 +17 1023.7 970.9
12 21.08 СВ 3
{10}
45 км 10/10 600 м
[]
+17.3 +12.4 73 +17 +17 1023.0 970.3 0
13 21.08 СВ 4 35 км 9/9 870 м
[]
+18.9 +13.1 69 +20 +21 1022.4 970.0
14 21.08 СВ 3-5
{6}
50 км 10/10 960 м
[]
+18.6 +12.8 69 +19 +19 1022.4 969.9
15 21.08 С 2-4
{6}
50 км 10/10 600 м
[]
+18.6 +13.0 70 +20 +20 1022.4 969.9 0
16 21.08 С 2-4
{4}
60 км 10/10 960 м
[]
+18.6 +12.8 69 +20 +20 1022.3 969.8
17 21.08 В 1-1
{3}
60 км 10/10 1020 м
[]
+18.7 +14.0 74 +21 +21 комфорт 1021.8 969.4
18 21.08 СВ 1
{3}
60 км 10/10 1000 м
[]
+18.5 +14.2 76 +20 +20 1021.8 969.4 +13.7 +19.2 0
19 21.08 СВ 1-1
{2}
55 км 10/10 1020 м
[]
+17.9 +14.4 80 +19 +19 1022.2 969.7
20 21.08 В 1-1
{2}
55 км 10/10 960 м
[]
+17.7 +14.2 80 +19 +19 1022.6 970.0
21 21.08 СВ 1-2
{2}
55 км 10/10 600 м
[]
+17.5 +14.2 81 +19 +19 1022.6 970.0 0
22 21.08 В 1-1
{2}
55 км 10/10 930 м
[]
+17.0 +14.6 86 +19 +19 1022.9 970.2
23 21.08 СВ 1-2
{2}
60 км 10/10 900 м
[]
+17.1 +13.2 78 +18 +18 1022.8 970.1
00 22.08 СВ 1-2
{2}
60 км 10/10 600 м
[]
+17.0 +13.5 80 +18 +18 1022.3 969.6 0
01 22.08 СВ 1-2
{2}
60 км 10/10 870 м
[]
+16.9 +13.4 80 +18 +18 1022.1 969.4
02 22.08 СЗ 1-2
{2}
60 км 10/10 840 м
[]
+16.1 +12.6 80 +17 +17 1022.0 969.1
03 22.08 СЗ 1-2
{3}
55 км 10/10 600 м
[]
+15.3 +12.4 83 +16 +16 1022.2 969.2 0
04 22.08 СЗ 1-2
{2}
45 км 10/10 800 м
[]
+15.1 +12.4 84 +16 +16 1022.3 969.2
05 22.08 ЮЗ 1-1
{2}
45 км 10/10 800 м
[]
+15.4 +12.7 84 +17 +17 1022.4 969.4
06 22.08 СЗ 1
{3}
40 км 10/10 600 м
[]
+15.8 +12.9 83 +16 +16 1022.7 969.7 +15.0 +18.5 0
07 22.08 СЗ 1-1
{2}
40 км 10/10 800 м
[]
+16.8 +13.5 81 +18 +18 1022.6 969.8
08 22.08 СВ 2-2
{3}
45 км 10/10 750 м
[]
+18.2 +13.9 76 +19 +19 1022.7 970.2
09 22.08 С 1-2
{3}
45 км 10/10 600 м
[]
+18.9 +13.3 70 +21 +21 комфорт 1022.8 970.4 0
10 22.08 З 1-2
{2}
40 км 10/10 800 м
[]
+19.6 +14.0 70 +23 +23 комфорт 1022.8 970.5
11 22.08 С 1-2
{2}
45 км 10/10 800 м
[]
+21.0 +15.8 72 +26 +26 душно 1022.5 970.5
12 22.08 СВ 1-3
{3}
35 км 9/9 600 м
[]
+21.0 +14.6 67 +25 +27 комфорт 1022.3 970.3 0
13 22.08 СВ 1-2
{3}
40 км н/о +21.4 +15.5 69 +25 +25 комфорт 1022.1 970.2
14 22.08 С 1-2
{2}
40 км н/о +22.1 +15.9 68 +26 +26 душно 1021.8 970.0
15 22.08 СВ 1-2
{2}
35 км н/о +22.6 +15.9 66 +27 +27 душно 1021.4 969.7 0
16 22.08 СЗ 2-3
{3}
35 км н/о +23.4 +16.2 64 +28 +28 душно 1021.0 969.5
17 22.08 СЗ 2-3
{3}
50 км н/о +23.1 +15.7 63 +27 +27 душно 1020.8 969.3
18 22.08 СЗ 1
{5}
35 км н/о +22.0 +15.6 67 +26 +26 душно 1021.5 969.7 +15.7 +24.1 0
19 22.08 С 1-1
{2}
27 км н/о +19.9 +15.5 76 +24 +24 комфорт 1022.4 970.2
20 22.08 С 1-2
{2}
28 км н/о +18.3 +15.2 82 +20 +20 1023.3 970.8
21 22.08 ЮВ 1-1
{2}
25 км н/о +17.2 +14.8 86 +19 +19 1023.5 970.8 0
22 22.08 С 1-2
{2}
20 км н/о +16.4 +14.8 90 +17 +17 1023.9 971.0
23 22.08 СЗ 1-2
{2}
20 км н/о +16.9 +14.5 86 +18 +18 1023.8 971.0
00 23.08 СЗ 1-1
{2}
16 км н/о +16.0 +14.2 89 +17 +17 1023.9 970.9 0
01 23.08 СЗ 1-1
{2}
12 км 8/8 800 м
[]
+15.0 +13.7 92 +16 +16 1023.7 970.6
02 23.08 СЗ 1-2
{2}
9000 м н/о +14.6 +13.5 93 +15 +15 1023.5 970.3 0.2
03 23.08 СВ 1-1
{3}
9000 м 9/9 600 м
[]
+14.1 +13.1 94 +15 +15 1023.5 970.2 0.2 0
04 23.08 СЗ 1-1
{2}
6000 м н/о +13.4 +12.6 95 +14 +14 1023.6 970.2
05 23.08 В 1-1
{1}
8000 м 9/9 800 м
[]
+13.7 +13.2 97 +15 +15 1023.6 970.2
06 23.08 Ю 1
{1}
9000 м 10/10 300 м
[]
+14.8 +13.8 94 +16 +16 1023.4 970.2 +13.0 +22.0 0
07 23.08 штиль 0-1
{1}
13 км 10/10 700 м
[]
+16.2 +14.4 89 +16 +16 1023.4 970.5
08 23.08 С 1-1
{2}
16 км 10/10 720 м
[]
+18.4 +15.1 81 +20 +20 1022.8 970.3
09 23.08 СВ 1-2
{2}
21 км 10/10 600 м
[]
+19.0 +15.1 78 +22 +22 комфорт 1022.4 970.1 0
10 23.08 СВ 2-3
{3}
35 км 10/10 750 м
[]
+19.8 +14.4 71 +23 +23 комфорт 1022.1 969.9
11 23.08 СЗ 2-4
{4}
27 км 9/9 800 м
[]
+20.8 +15.1 70 +24 +26 комфорт 1021.7 969.7
12 23.08 СЗ 2-3
{4}
19 км 8/8 600 м
[]
+22.0 +15.4 66 +26 +29 душно 1020.9 969.2 0
13 23.08 СВ 2-3
{4}
22 км н/о +22.7 +16.3 67 +27 +27 душно 1020.4 968.8
14 23.08 СЗ 3-4
{5}
26 км н/о +23.2 +16.3 65 +28 +28 душно 1020.0 968.5
15 23.08 СЗ 2-4
{4}
25 км н/о +23.4 +16.7 66 +28 +28 душно 1019.6 968.2

 

Местоположение метеостанции Анси (Франция): широта 45.93 долгота 6.11 высота над уровнем моря 463 м.

В архиве по умолчанию представлена погода в Анси за последнюю неделю. Архивные данные за месяц целиком и за предыдущие месяцы, начиная с января 2011 года, Вы можете получить, выбрав интересующий диапазон дат из раскрывающегося списка и нажав кнопку "Ввод!".


*Определитесь, кто Вы:
робот инопланетянин человек

Внимание! Время в таблицах - всемирное. Для получения местного времени необходимо прибавить поправку, которая равна 1 ч.

Смотрите также архив погоды в соседних городах и на ближайших метеорологических станциях:

Погода в Женеве (Швейцария) (36 км)
Погода в Шамбери (Франция) (38 км)
Погода в Шанжене (Швейцария) (53 км)
Погода на Ла Доли (Швейцария) (56 км)
Погода в Шарбоньере (Швейцария) (60 км)
Погода в Амберьё-ан-Бюже (Франция) (61 км)
Погода в Бур-сен-Морисе (Франция) (62 км)
Погода в Бьере (Швейцария) (69 км)
Погода в Сальване (Швейцария) (73 км)
Погода в Эвьоне (Швейцария) (76 км)

Пояснения к столбцам:

Ветер - указаны скорость ветра в м/с - средняя за 10 мин, порывы в срок и между сроками (в фигурных скобках) и направление, откуда дует ветер: С - северный, СВ - северо-восточный, В - восточный, ЮВ - юго-восточный, Ю - южный, ЮЗ - юго-западный, З - западный, СЗ - северо-западный.
Видимость - горизонтальная дальность видимости в метрах или километрах. При видимости от 1 до 10 км при отсутствии осадков обычно наблюдается дымка, при ухудшении видимости до 1 км и менее - туман. В сухую погоду видимость может ухудшаться дымом, пылью или мглою.
Явления - указаны атмосферные явления, наблюдавшиеся в срок или в последний час перед сроком; фигурными скобками обозначены явления, наблюдавшиеся между сроками (за 1-3 часа до срока); квадратными скобками обозначены град или гололедные отложения с указанием их диаметра в мм.
Облачность - указаны через наклонную черту общая и нижняя облачность в баллах и высота нижней границы облаков в метрах; квадратными скобками обозначены формы облаков: Ci - перистые, Cs - перисто-слоистые, Cc - перисто-кучевые, Ac - высококучевые, As - высокослоистые, Sc - слоисто-кучевые, Ns - слоисто-дождевые, Cu - кучевые, Cb - кучево-дождевые. Подробнее классификацию облаков см. в Атласе облаков (PDF).
T - Температура воздуха - температура, измеренная на высоте 2 м над землей.
Td - Температура точки росы - температура, при понижении до которой содержащийся в воздухе водяной пар достигнет насыщения.
f - Относительная влажность воздуха - влажноcть воздуха, измеренная на высоте 2 м над землей.
Te - Эффективная температура - температура, которую ощущает одетый по сезону человек в тени. Характеристика душности погоды. При расчете учитывается влияние влажности воздуха и скорости ветра на теплоощущения человека.
Tes - Эффективная температура на солнце - температура, которую ощущает человек, с поправкой на солнечный нагрев. Характеристика знойности погоды. Зависит от высоты солнца над горизонтом, облачности и скорости ветра. Ночью, в пасмурную погоду, а также при ветре 12 м/с и более поправка равна нулю.
P - Атмосферное давление - приведенное к уровню моря атмосферное давление.
Po - Атмосферное давление - измеренное на уровне метеостанции атмосферное давление.
Tmin - Минимальная температура - минимум температуры воздуха на высоте 2 м над землей.
Tmax - Максимальная температура - максимум температуры воздуха на высоте 2 м над землей.
R - Количество осадков - Количество выпавших осадков за период времени, мм. При наведении курсора мыши на число - период времени, за который выпало указанное количество осадков.
R24 - Количество осадков - Количество выпавших осадков за 24 часа, мм.
S - Снежный покров - Высота снежного покрова, см. При наведении курсора мыши на число - состояние снежного покрова и степень покрытия местности в баллах.